TimeEDT,TemperatureF,Dew PointF,Humidity,Sea Level PressureIn,VisibilityMPH,Wind Direction,Wind SpeedMPH,Gust SpeedMPH,PrecipitationIn,Events,Conditions,WindDirDegrees,DateUTC
12:53 AM,61.0,50.0,67,30.19,10.0,SSW,5.8,-,N/A,,Clear,200,2013-03-31 04:53:00
1:53 AM,61.0,48.9,64,30.18,10.0,SSW,5.8,-,N/A,,Clear,210,2013-03-31 05:53:00
2:53 AM,62.1,48.9,62,30.17,10.0,SSW,5.8,-,N/A,,Overcast,200,2013-03-31 06:53:00
3:53 AM,59.0,48.9,69,30.15,10.0,SSW,4.6,-,N/A,,Clear,200,2013-03-31 07:53:00
4:53 AM,60.1,51.1,72,30.14,10.0,South,4.6,-,N/A,,Clear,190,2013-03-31 08:53:00
5:53 AM,59.0,52.0,78,30.15,10.0,South,4.6,-,N/A,,Clear,180,2013-03-31 09:53:00
6:53 AM,57.0,52.0,83,30.16,10.0,SSW,4.6,-,N/A,,Clear,200,2013-03-31 10:53:00
7:53 AM,57.9,53.1,84,30.18,10.0,Calm,Calm,-,N/A,,Clear,0,2013-03-31 11:53:00
8:53 AM,66.0,55.0,68,30.19,10.0,SW,6.9,-,N/A,,Clear,230,2013-03-31 12:53:00
9:53 AM,71.1,54.0,55,30.19,10.0,SW,9.2,-,N/A,,Clear,220,2013-03-31 13:53:00
10:53 AM,73.9,52.0,46,30.18,10.0,SSW,12.7,-,N/A,,Clear,210,2013-03-31 14:53:00
11:53 AM,75.9,50.0,40,30.15,10.0,South,13.8,20.7,N/A,,Clear,170,2013-03-31 15:53:00
12:53 PM,77.0,52.0,42,30.14,10.0,South,9.2,17.3,N/A,,Partly Cloudy,180,2013-03-31 16:53:00
1:53 PM,81.0,52.0,36,30.12,10.0,South,12.7,19.6,N/A,,Partly Cloudy,180,2013-03-31 17:53:00
2:53 PM,78.1,57.9,50,30.09,10.0,SE,12.7,-,N/A,,Partly Cloudy,130,2013-03-31 18:53:00
3:53 PM,84.0,48.9,29,30.06,10.0,South,16.1,20.7,N/A,,Partly Cloudy,180,2013-03-31 19:53:00
4:53 PM,77.0,61.0,58,30.04,10.0,SE,15.0,20.7,N/A,,Clear,130,2013-03-31 20:53:00
5:53 PM,75.9,61.0,60,30.03,10.0,SSE,15.0,-,N/A,,Clear,150,2013-03-31 21:53:00
6:53 PM,75.0,60.1,60,30.03,10.0,SE,10.4,-,N/A,,Clear,140,2013-03-31 22:53:00
7:53 PM,73.0,62.1,68,30.03,10.0,SE,10.4,-,N/A,,Clear,140,2013-03-31 23:53:00
8:53 PM,72.0,63.0,73,30.03,10.0,SSE,9.2,-,N/A,,Clear,150,2013-04-01 00:53:00
9:53 PM,72.0,63.0,73,30.04,10.0,SSE,11.5,-,N/A,,Clear,160,2013-04-01 01:53:00
10:53 PM,71.1,63.0,75,30.05,10.0,South,11.5,18.4,N/A,,Partly Cloudy,180,2013-04-01 02:53:00
11:53 PM,70.0,62.1,76,30.06,10.0,South,10.4,-,N/A,,Clear,190,2013-04-01 03:53:00